FW6649 Weather Reports


Display with metric or nautical units.
time (UTC)temp
F
wind
direction
speed
MPH
gust
MPH
rain 1hr
in
rain 24hr
in
rain mn
in
humidity
%
barometer
mb
20260502123037 52 290 2.0 4.0 0.00 0.00 0.00 67 1013.5
20260502121545 52 309 2.0 4.0 0.00 0.00 0.00 66 1013.6
20260502114541 52 310 2.0 4.0 0.00 0.00 0.00 66 1013.3
20260502113036 52 326 2.0 7.0 0.00 0.00 0.00 66 1013.2
20260502111534 52 0 1.0 3.0 0.00 0.00 0.00 69 1013.1
20260502110032 52 0 0.0 3.0 0.00 0.00 0.00 68 1012.9
20260502104537 52 0 0.0 5.0 0.00 0.00 0.00 68 1012.9
20260502103043 52 307 0.0 6.0 0.00 0.00 0.00 69 1012.9
20260502101544 52 293 2.0 5.0 0.00 0.00 0.00 69 1013.0
20260502091533 52 318 3.0 8.0 0.00 0.00 0.00 72 1012.6
20260502070037 50 0 0.0 0.0 0.00 0.00 0.00 90 1011.9
20260502064535 50 0 0.0 0.0 0.00 0.00 0.00 90 1011.9
20260502063034 50 0 0.0 2.0 0.00 0.00 0.00 90 1012.1
20260502061540 50 0 0.0 0.0 0.00 0.00 0.00 89 1012.1
20260502060038 51 0 0.0 2.0 0.00 0.00 0.00 89 1012.1
20260502054537 51 0 0.0 0.0 0.00 0.00 0.00 88 1012.1
20260502053036 51 0 0.0 0.0 0.00 0.00 0.00 88 1012.2
20260502051543 51 0 0.0 0.0 0.00 0.00 0.00 87 1012.2
20260502050040 51 0 0.0 0.0 0.00 0.00 0.00 86 1012.2
20260502044539 52 0 0.0 6.0 0.00 0.00 0.00 86 1012.6
20260502043037 52 0 0.0 0.0 0.00 0.00 0.00 85 1012.4
20260502041559 52 154 1.0 2.0 0.00 0.00 0.00 84 1012.2
20260502040041 53 0 0.0 2.0 0.00 0.00 0.00 84 1012.3
20260502034538 53 0 0.0 5.0 0.00 0.00 0.00 83 1012.4
20260502033049 53 164 2.0 5.0 0.00 0.00 0.00 82 1012.4
20260502031535 53 169 2.0 6.0 0.00 0.00 0.00 81 1012.2
20260502030038 54 138 2.0 6.0 0.00 0.00 0.00 80 1012.3
20260502024538 54 131 3.0 8.0 0.00 0.00 0.00 79 1012.3
20260502023035 54 163 2.0 6.0 0.00 0.00 0.00 77 1012.3
20260502021532 55 154 3.0 7.0 0.00 0.00 0.00 76 1012.1
20260502020038 55 151 2.0 10.0 0.00 0.00 0.00 74 1012.0
20260502014537 56 144 3.0 11.0 0.00 0.00 0.00 72 1011.9
20260502013038 56 161 6.0 10.0 0.00 0.00 0.00 70 1011.9
20260502011536 57 167 3.0 9.0 0.00 0.00 0.00 69 1012.0
20260502010037 58 126 3.0 11.0 0.00 0.00 0.00 69 1011.6
20260502004535 58 155 4.0 11.0 0.00 0.00 0.00 68 1011.4
20260502003037 59 139 3.0 11.0 0.00 0.00 0.00 66 1011.1
20260502001538 60 149 4.0 9.0 0.00 0.00 0.00 64 1010.8
20260502000037 60 134 4.0 9.0 0.00 0.00 0.00 62 1010.4
20260501234534 61 128 4.0 12.0 0.00 0.00 0.00 59 1010.6
20260501233040 62 124 3.0 8.0 0.00 0.00 0.00 57 1010.6
20260501231553 63 108 5.0 11.0 0.00 0.00 0.00 55 1010.4
20260501230039 64 111 3.0 10.0 0.00 0.00 0.00 53 1010.5
20260501224537 65 143 4.0 9.0 0.00 0.00 0.00 51 1010.4
20260501223102 66 157 4.0 9.0 0.00 0.00 0.00 50 1010.6
20260501221532 66 126 3.0 8.0 0.00 0.00 0.00 50 1010.7
20260501220039 67 213 5.0 8.0 0.00 0.00 0.00 47 1010.9
20260501214538 66 141 6.0 10.0 0.00 0.00 0.00 47 1010.9
20260501213037 66 171 3.0 10.0 0.00 0.00 0.00 47 1011.0
20260501211534 66 143 7.0 15.0 0.00 0.00 0.00 45 1011.1
20260501210035 67 176 6.0 12.0 0.00 0.00 0.00 45 1011.2
20260501204532 66 130 6.0 11.0 0.00 0.00 0.00 45 1011.4
20260501203038 66 138 6.0 10.0 0.00 0.00 0.00 44 1011.4
20260501201536 66 190 6.0 13.0 0.00 0.00 0.00 44 1011.7
20260501200035 67 215 4.0 8.0 0.00 0.00 0.00 43 1011.8
20260501194538 66 167 4.0 11.0 0.00 0.00 0.00 45 1012.3
20260501193037 67 165 5.0 12.0 0.00 0.00 0.00 43 1012.5
20260501191537 66 176 6.0 16.0 0.00 0.00 0.00 41 1012.7
20260501190035 66 146 4.0 12.0 0.00 0.00 0.00 40 1013.0
20260501184537 65 213 2.0 10.0 0.00 0.00 0.00 43 1013.0
20260501183033 64 169 3.0 10.0 0.00 0.00 0.00 44 1013.2
20260501181538 64 185 4.0 9.0 0.00 0.00 0.00 45 1013.5
20260501180043 65 163 3.0 7.0 0.00 0.00 0.00 45 1013.6
20260501174554 63 36 2.0 8.0 0.00 0.00 0.00 46 1014.0
20260501173039 62 240 3.0 12.0 0.00 0.00 0.00 46 1014.2
20260501171538 62 0 3.0 8.0 0.00 0.00 0.00 47 1014.4
20260501170046 61 133 3.0 8.0 0.00 0.00 0.00 47 1014.5
20260501164539 61 92 3.0 9.0 0.00 0.00 0.00 48 1014.8
20260501163038 61 120 6.0 12.0 0.00 0.00 0.00 50 1015.0
20260501161532 61 130 2.0 10.0 0.00 0.00 0.00 51 1015.1
20260501160047 59 196 2.0 9.0 0.00 0.00 0.00 51 1015.3
20260501154539 59 118 2.0 8.0 0.00 0.00 0.00 52 1015.4
20260501153032 58 305 1.0 9.0 0.00 0.00 0.00 53 1015.7
20260501151532 59 136 3.0 7.0 0.00 0.00 0.00 55 1015.6
20260501150036 58 108 2.0 7.0 0.00 0.00 0.00 58 1015.8
20260501144541 56 150 4.0 12.0 0.00 0.00 0.00 58 1015.9
20260501143051 56 153 3.0 10.0 0.00 0.00 0.00 61 1015.7